EW6791 Weather Reports


time (UTC)temp
C
wind
direction
speed
KPH
gust
KPH
rain 1hr
cm
rain 24hr
cm
rain mn
cm
humidity
%
barometer
mb
20260510180018 12 201 1.6 11.3 0.00 0.00 0.00 31 1015.4
20260510174514 12 214 0.0 11.3 0.00 0.00 0.00 33 1015.4
20260510173010 12 197 1.6 8.0 0.00 0.00 0.00 34 1015.6
20260510171510 11 280 0.0 8.0 0.00 0.00 0.00 37 1015.7
20260510170006 11 290 0.0 8.0 0.00 0.00 0.00 38 1015.8
20260510164504 11 154 1.6 9.7 0.00 0.00 0.00 39 1015.9
20260510163002 10 357 0.0 8.0 0.00 0.00 0.00 44 1015.8
20260510161558 10 187 1.6 11.3 0.00 0.00 0.00 41 1015.9
20260510160105 10 217 3.2 16.1 0.00 0.00 0.00 44 1015.7
20260510154608 9 305 1.6 12.9 0.00 0.00 0.00 47 1015.7
20260510153056 9 294 1.6 9.7 0.00 0.00 0.00 46 1015.6
20260510151552 9 297 0.0 11.3 0.00 0.00 0.00 46 1015.6
20260510150051 8 259 1.6 9.7 0.00 0.00 0.00 46 1015.3
20260510144545 8 297 1.6 9.7 0.00 0.00 0.00 47 1015.2
20260510143050 8 298 1.6 11.3 0.00 0.00 0.00 47 1015.0
20260510141544 8 279 1.6 9.7 0.00 0.00 0.00 50 1015.0
20260510140044 7 278 0.0 11.3 0.00 0.00 0.00 50 1015.0
20260510134538 7 308 1.6 12.9 0.00 0.00 0.00 51 1014.9
20260510133037 8 271 3.2 11.3 0.00 0.00 0.00 50 1014.8
20260510131536 7 295 3.2 11.3 0.00 0.00 0.00 48 1014.7
20260510130035 7 283 3.2 14.5 0.00 0.00 0.00 50 1014.6
20260510124554 7 289 4.8 12.9 0.00 0.00 0.00 50 1014.3
20260510123030 7 287 4.8 11.3 0.00 0.00 0.00 51 1014.0
20260510121528 7 253 1.6 11.3 0.00 0.00 0.00 50 1013.9
20260510120032 7 266 8.0 12.9 0.00 0.00 0.00 50 1013.6
20260510114525 7 284 4.8 11.3 0.00 0.00 0.00 49 1013.5
20260510113028 7 288 1.6 9.7 0.00 0.00 0.00 48 1013.3
20260510111529 8 268 1.6 9.7 0.00 0.00 0.00 49 1012.9
20260510110015 7 237 1.6 6.4 0.00 0.00 0.00 49 1012.8
20260510104513 7 311 4.8 11.3 0.00 0.00 0.00 50 1012.6
20260510103010 6 301 3.2 9.7 0.00 0.00 0.00 51 1012.4
20260510101509 6 165 1.6 9.7 0.00 0.00 0.00 53 1012.3
20260510100007 6 300 0.0 8.0 0.00 0.00 0.00 53 1012.2
20260510094506 6 295 3.2 9.7 0.00 0.00 0.00 50 1012.0
20260510093003 6 253 3.2 0.0 0.00 0.00 0.00 52 1011.8
20260510091608 6 283 3.2 11.3 0.00 0.00 0.00 51 1011.7
20260510090114 6 270 4.8 11.3 0.00 0.00 0.00 51 1011.5
20260510084600 6 268 4.8 11.3 0.00 0.00 0.00 52 1011.1
20260510083059 6 304 1.6 9.7 0.00 0.00 0.00 53 1010.9
20260510081553 6 278 4.8 11.3 0.00 0.00 0.00 53 1010.9
20260510080058 6 309 3.2 12.9 0.00 0.00 0.00 52 1010.7
20260510074548 6 293 8.0 12.9 0.00 0.00 0.00 52 1010.6
20260510073045 6 252 3.2 11.3 0.00 0.00 0.00 52 1010.3
20260510071543 7 339 1.6 14.5 0.00 0.00 0.00 52 1010.1
20260510070046 7 297 8.0 17.7 0.00 0.00 0.00 52 1009.8
20260510064557 7 300 6.4 9.7 0.00 0.00 0.00 51 1009.9
20260510063045 7 346 3.2 9.7 0.00 0.00 0.00 52 1009.7
20260510061546 7 335 8.0 14.5 0.00 0.00 0.00 51 1009.7
20260510060040 7 271 1.6 11.3 0.00 0.00 0.00 51 1009.6
20260510054534 7 259 1.6 4.8 0.00 0.00 0.00 54 1009.4
20260510053031 7 287 0.0 4.8 0.00 0.00 0.00 52 1009.1
20260510051529 7 307 1.6 8.0 0.00 0.00 0.00 50 1009.0
20260510050026 7 309 6.4 14.5 0.00 0.00 0.00 51 1008.7
20260510044531 7 310 11.3 17.7 0.00 0.00 0.00 50 1008.7
20260510043023 7 321 9.7 17.7 0.00 0.00 0.00 50 1008.4
20260510041521 8 309 8.0 17.7 0.00 0.00 0.00 50 1008.4
20260510040018 7 326 9.7 17.7 0.00 0.00 0.00 56 1008.2
20260510034515 7 38 12.9 19.3 0.00 0.00 0.00 57 1008.1
20260510033013 7 18 14.5 19.3 0.00 0.00 0.00 54 1007.7
20260510031511 8 23 17.7 22.5 0.00 0.00 0.00 53 1007.4
20260510030005 9 309 6.4 12.9 0.00 0.00 0.00 51 1007.1
20260510024502 9 296 4.8 8.0 0.00 0.00 0.00 51 1006.6
20260510023101 9 307 3.2 6.4 0.00 0.00 0.00 51 1006.4
20260510021558 10 269 1.6 8.0 0.00 0.00 0.00 51 1005.9
20260510020055 10 337 0.0 1.6 0.00 0.00 0.00 52 1005.7
20260510014552 10 305 0.0 6.4 0.00 0.00 0.00 51 1005.4
20260510013053 10 299 0.0 4.8 0.00 0.00 0.00 51 1004.9
20260510011547 10 338 1.6 9.7 0.00 0.00 0.00 51 1004.5
20260510010046 10 277 1.6 9.7 0.00 0.00 0.00 51 1004.2
20260510004546 10 277 8.0 12.9 0.00 0.00 0.00 50 1003.9
20260510003054 10 285 6.4 11.3 0.00 0.00 0.00 51 1003.7
20260510001546 11 271 6.4 12.9 0.00 0.00 0.00 50 1003.3
20260510000044 11 297 4.8 11.3 0.00 0.00 0.00 50 1002.9
20260509234559 11 278 4.8 12.9 0.00 0.00 0.00 49 1002.4
20260509233050 11 265 4.8 17.7 0.00 0.00 0.00 49 1002.0
20260509231601 11 284 3.2 9.7 0.00 0.00 0.00 49 1001.7
20260509230041 12 296 1.6 9.7 0.00 0.00 0.00 50 1001.5
20260509224540 11 252 1.6 11.3 0.00 0.00 0.00 51 1001.3
20260509223040 12 359 3.2 17.7 0.00 0.00 0.00 49 1001.0
20260509221540 13 323 1.6 12.9 0.00 0.00 0.00 47 1000.5
20260509220040 14 330 1.6 8.0 0.00 0.00 0.00 47 1000.1
20260509214538 15 177 1.6 19.3 0.00 0.00 0.00 44 1000.1
20260509213037 16 251 9.7 17.7 0.00 0.00 0.00 41 999.8
20260509211536 16 179 6.4 20.9 0.00 0.00 0.00 42 999.6
20260509210038 15 195 3.2 19.3 0.00 0.00 0.00 44 999.5
20260509204535 15 253 3.2 19.3 0.00 0.00 0.00 48 999.3
20260509203040 16 209 8.0 24.1 0.00 0.00 0.00 43 999.2
20260509201533 16 207 4.8 29.0 0.00 0.00 0.00 44 998.9
20260509200034 16 201 9.7 25.7 0.00 0.00 0.00 43 998.6
20260509194532 16 160 6.4 17.7 0.00 0.00 0.00 43 998.6
20260509193031 16 210 4.8 17.7 0.00 0.00 0.00 45 998.7
20260509191530 15 221 4.8 22.5 0.00 0.00 0.00 46 998.7
20260509190034 15 214 8.0 24.1 0.00 0.00 0.00 46 998.7
20260509184539 15 207 8.0 24.1 0.00 0.00 0.00 45 998.5
20260509183034 15 150 6.4 22.5 0.00 0.00 0.00 45 998.3
20260509181528 15 199 9.7 24.1 0.00 0.00 0.00 45 998.5